Tracking 20623 objects as of 3-Apr-2020
HD Live streaming from Space Station
objects crossing your sky now

COSMOS 797

Track COSMOS 797 now!
10-day predictions
COSMOS 797 is classified as:


NORAD ID: 8613
Int'l Code: 1976-008G
Perigee: 1,486.3 km
Apogee: 1,535.7 km
Inclination: 74.1 °
Period: 116.1 minutes
Semi major axis: 7881 km
RCS: 0.7129 m2 (medium)
Launch date: January 28, 1976
Source: Commonwealth of Independent States (former USSR) (CIS)
Launch site: PLESETSK MISSILE AND SPACE COMPLEX (PKMTR)
aabbcc
Your satellite tracking list
Your tracking list is empty




NASA's NSSDC Master Catalog

Two Line Element Set (TLE):
1  8613U 76008G   20093.84413759 -.00000015 +00000-0 +30213-6 0  9996
2  8613 074.0530 139.8526 0031337 121.0977 051.5717 12.40652386000921
Source of the keplerian elements: AFSPC